User: anonymous   Login
Location: Freistadt
(48.5112°N, 14.5013°E)
Time: 23:33:44
(UTC+02:00)
Language:

NOAA 16 DEB - Orbit

View from above orbital plane
View from above orbital plane
View from above satellite
View from above satellite

Ground track
Ground track

The orbit data is extracted from the following two-line orbital elements,

1 41213U 00055DS  24147.65772681  .00013354  00000-0  43373-2 0  9999
2 41213  98.9837 304.2042 0020459 329.4839  30.5155 14.38844487438476
Epoch (UTC): 26 May 2024 15:47:07
Eccentricity: 0.0020459
inclination: 98.9837°
perigee height: 748 km
apogee height: 777 km
right ascension of ascending node: 304.2042°
argument of perigee: 329.4839°
revolutions per day: 14.38844487
mean anomaly at epoch: 30.5155°
orbit number at epoch: 43847

The dashed part of the orbit path shows where the satellite is in the earth's shadow,  

DLR